HULIANWANG DIGUI-42 (65045 NORAD) Tracking and Keplerian Element Data

This shows tracking and keplerian element data for the satellite.

Feedback or suggestion? Click here.




ElementValue
Catalog65045
NameHULIANWANG DIGUI-42
Epoch Orbit1955
Epoch Day354.22270601
Epoch Year2025
RAAN187.6878
Inclination49.9946
Eccentricity6.25E-05
Argument of Perigee112.3866
Mean Anonmoly247.7073
Mean Motion13.29325077
Decay Rate-9.2E-07
L11 65045U 25162C 25354.22270601 -.00000092 00000+0 68759-4 0 9995
L22 65045 49.9946 187.6878 0000625 112.3866 247.7073 13.29325077 19557



Live tracking and technical data element details for HULIANWANG DIGUI-42 (NORAD 65045). HULIANWANG DIGUI-42 can be tracked NOW for your location showing map with azimuth and elevation plus other details from your city location.







IsCatalogInMostPopularTable: catalog: 65045, numindb: 3
Update: records affected: 1



GetName: 65045 HULIANWANG DIGUI-42

Hit Count: updated at: Wed, 15 Apr 2026 01:38:35 GMT